CZ-3C DEB, 40207

Orbit data source: Space-Track

CZ-3C DEB, 40207 is space debris in HEO originally from a launch on Fri, 24 Feb 2012 UTC launched from the Xichang Space Center, China (XSC). Debris objects in space refer to the collection of defunct objects orbiting the Earth. Examples of debris include non-operational satellites, rocket bodies, and fragments generated from explosions, collisions, or faulty payload assembly.

Loading next visibility...
Identifier
40207, 2012-008S
Orbit
HEO
Country
Flag of CNCN / PRC
Related business
Manufacturer
CALT
Mission
Spacecraft
Bus & Motor
Unknown
Mass
Unknown
Launch date (UTC)
2012-02-24 (14 years ago)
Launch vehicle
Unknown
Launch site
Xichang Space Center, China (XSC)
Object type
Payload
Rocket body
Debris
Shape & HBR
Unknown shape, 0.3 m
Radar Cross Section
Medium (>0.1 m² and <1 m²)

Expand to show TLE details & history
Last TLE update: 3 days ago

TLE from 3 days ago
0 CZ-3C DEB
1 40207U 12008S   26031.92015517  .00000796  00000-0  49366-2 0  9998
2 40207  19.6648   0.1779 7222922 290.5149   9.7972  2.24266228 92367
Epoch: 2026-01-31T22:05Z
TLE epoch observation values (Epoch: 2026-01-31T22:05:01.406Z)
Latitude
-0.00075°
Longitude
-102.19163°
Altitude
3,000.618 km
Speed
8.296 km/s
True Right ascension
00h 00m 48s
True Declination
0° 00' 03"
Sunlit
Object was in daylight at epoch
Visualization orbit readout
Latitude
Unknown
Longitude
Unknown
Altitude
Unknown
Speed
Unknown
Apparent Right ascension
Unknown
Apparent Declination
Unknown
Sunlit
N/A
Visualization observer readout
Local Sidereal Time
09:00:16
Azimuth
Unknown
Elevation
Unknown
Doppler factor
Unknown
Orbital elements
Apogee altitude
36,091.511 km
Perigee altitude
469.802 km
Semi-major axis
24,658.794 km
Eccentricity
0.72229
Inclination
19.6648°
RAAN
0.1779°
Arg. of periapsis
290.5149°
True anomaly
69.79033°
Mean anomaly
9.7972°
Eccentric anomaly
31.29251°
Mean motion
0.56051 °/min
Orbital period
642.27 mins
BSTAR
0.0049366
Loading maneuver chart data...
Computing Atmospheric mass density...
Loading historical data...
Loading historical data...
Loading historical data...
Loading historical data...
Loading historical data...
Loading historical data...
Loading historical data...

Documentation

Showing up to 5 results
|